Theta_e
303 304 304 304 304 305 306 306 306 305 304 304 304 304 305 306 307 307 308 308 308 308 308 308 308 307 307 307 306 305 305 305 305 306 307 308 305 306 309 311 313 313 313 312 312 310 309 309 311 314 315 315 316 317 317 318 317 317 317 315 312 312 312 314 316 315 315 316 316 318 318 318 318 319 319 319 321 319 324 322 324 342 352 351 352 354 354 353
303 303 303 303 304 304 304 305 305 305 305 305 305 304 304 304 305 306 307 308 308 308 308 308 308 307 307 307 306 305 306 305 306 306 307 306 305 306 309 312 313 312 312 311 311 310 308 309 311 313 314 314 316 317 317 318 318 317 317 315 313 313 314 315 316 316 316 316 316 318 318 319 318 320 319 319 320 319 322 319 333 354 356 352 353 354 353 352
302 302 303 303 303 303 303 304 304 305 305 305 305 305 305 304 304 304 306 307 308 308 309 308 308 308 307 307 306 306 305 305 305 307 309 309 308 307 309 311 312 312 311 310 310 309 308 309 310 312 313 313 314 316 316 317 317 317 317 316 314 315 316 316 317 316 317 317 317 318 318 320 319 320 320 320 321 319 323 318 337 357 357 354 354 353 352 352
302 302 303 303 303 303 303 303 303 304 304 304 304 305 305 305 305 304 304 306 307 308 308 308 308 307 308 307 306 306 305 306 308 310 312 312 311 310 310 310 311 311 310 310 309 309 309 309 310 311 313 313 313 314 314 315 316 317 317 316 316 317 316 316 317 316 317 317 317 318 318 320 319 320 319 320 321 319 323 318 335 355 357 355 354 352 352 352
303 303 303 303 303 303 303 303 303 303 303 303 304 304 303 303 304 304 304 305 306 307 307 308 308 308 307 307 306 306 306 310 312 312 311 311 310 310 311 311 311 311 310 309 309 309 309 309 309 310 312 312 312 313 313 314 315 316 316 317 317 317 317 316 317 317 317 317 317 317 318 319 319 321 318 319 320 319 323 317 334 354 355 354 353 351 352 352
303 304 303 303 303 303 303 303 303 303 303 303 303 304 303 302 302 303 304 304 304 306 307 308 308 308 307 307 307 306 307 312 311 310 309 309 309 308 309 310 310 310 310 309 309 309 309 309 309 311 313 312 312 313 313 314 315 315 316 316 317 317 317 317 317 317 317 317 317 317 318 320 318 319 319 319 319 320 323 317 334 352 352 352 352 351 352 351
303 303 304 303 303 303 303 303 303 303 303 303 303 303 304 303 302 301 302 303 303 304 306 307 307 308 307 307 307 306 306 308 308 308 309 308 308 308 307 308 308 308 310 311 311 310 310 309 309 312 313 313 312 312 313 314 314 315 314 315 316 317 317 317 318 317 317 316 317 319 318 319 318 318 318 319 319 320 322 319 335 350 351 351 351 351 352 352
304 304 304 304 303 304 303 303 303 303 303 303 303 303 303 303 303 301 300 301 303 303 305 306 307 307 308 307 306 306 306 306 306 307 309 309 308 309 307 307 308 309 311 312 312 312 311 310 309 311 313 313 313 313 313 313 314 314 314 315 316 317 318 318 318 317 317 316 318 319 319 319 318 318 317 318 318 320 321 320 338 350 350 352 353 352 353 353
303 303 304 303 303 303 303 303 303 303 303 303 303 303 303 303 303 302 301 300 301 302 304 305 306 307 307 307 306 307 307 307 306 307 309 309 308 308 307 308 308 310 312 312 312 313 313 311 310 311 313 313 313 313 314 313 313 314 315 315 315 317 318 318 318 318 317 316 318 319 319 319 318 318 317 317 318 320 322 318 335 352 352 352 353 354 353 352
303 303 303 303 303 303 303 303 303 303 303 303 303 303 302 302 302 302 302 301 301 301 303 304 306 307 307 307 307 308 308 306 307 307 308 308 308 308 308 309 308 309 312 312 311 312 313 312 310 311 312 312 312 313 314 314 314 314 315 315 315 316 317 318 317 317 317 316 317 319 319 319 319 319 317 318 320 321 323 318 328 347 354 352 353 354 352 348
303 303 303 302 303 303 303 302 302 303 303 303 303 303 302 302 302 302 302 302 302 300 301 304 305 306 307 307 307 308 307 306 307 307 307 307 307 308 308 309 309 309 311 313 312 311 312 313 312 311 311 311 311 311 313 314 314 314 314 315 315 316 316 317 317 317 317 316 317 319 319 319 318 318 317 317 320 322 323 319 318 336 351 353 352 353 350 345
303 302 302 302 302 302 302 302 302 302 302 302 302 302 302 302 301 301 302 302 301 300 301 303 304 306 307 307 307 307 306 306 306 306 306 307 307 307 308 309 308 308 309 311 313 312 312 312 312 311 311 311 310 310 312 313 314 314 314 314 314 316 316 316 316 317 317 317 318 317 316 318 317 317 318 317 320 323 322 322 317 329 345 350 352 351 347 344
302 302 302 302 302 302 302 302 302 302 302 302 302 302 302 302 301 301 301 302 301 300 299 300 303 305 306 307 307 306 306 306 306 307 307 307 308 308 308 308 308 308 308 309 310 312 312 312 313 312 311 311 310 310 312 312 313 314 314 313 313 313 314 315 316 316 316 317 318 318 313 314 318 317 318 318 318 319 322 323 317 326 343 348 351 350 346 343
303 302 302 302 302 302 302 301 301 302 302 302 301 301 301 301 301 301 302 302 302 301 299 300 303 305 306 307 306 305 305 305 306 306 306 307 308 307 308 308 308 308 308 308 309 310 311 311 312 312 312 311 311 311 311 312 312 313 314 313 313 311 311 315 317 316 316 316 319 319 312 313 318 317 318 319 317 318 319 317 321 338 345 342 343 344 342 340
302 302 302 302 302 302 302 301 301 301 301 301 301 301 301 301 301 301 301 302 302 301 300 301 304 305 305 305 305 305 305 305 306 306 306 307 307 308 308 308 308 308 308 308 309 309 310 310 311 312 312 311 312 311 311 311 312 313 312 311 312 310 311 316 317 317 316 316 319 318 313 314 316 316 318 317 317 318 315 320 336 344 341 336 336 338 338 336
302 302 302 302 302 302 302 301 301 301 301 301 301 301 301 300 300 300 300 301 302 301 301 301 302 304 305 305 304 305 306 306 307 307 306 307 307 307 308 308 308 308 308 308 308 309 310 310 312 313 312 312 311 310 310 310 311 312 312 311 311 310 311 314 316 317 316 316 317 317 315 315 316 317 318 318 319 315 319 335 340 340 339 338 338 339 339 337
302 302 302 302 302 302 302 302 301 301 300 300 300 300 300 299 299 299 299 301 302 301 301 302 302 304 306 305 304 304 305 306 306 307 308 308 308 308 308 308 307 308 308 308 308 309 310 310 312 314 313 311 310 310 311 310 311 313 313 313 312 311 311 312 314 317 317 316 316 317 316 316 317 318 317 321 321 313 328 342 340 340 340 341 341 341 341 339
301 302 302 302 302 302 302 301 301 300 300 300 300 300 299 299 299 299 300 301 302 301 301 301 302 304 305 304 305 305 305 306 306 307 308 308 308 308 308 307 307 308 307 307 308 309 309 310 312 315 314 311 310 310 310 310 311 312 313 313 312 312 312 311 313 315 316 315 315 316 316 316 316 318 317 318 318 318 336 342 341 341 341 341 341 340 339 337
301 301 302 301 302 302 301 301 300 300 300 300 300 299 299 300 300 302 302 301 302 302 301 301 302 303 304 304 305 305 306 306 306 307 308 308 309 308 308 307 307 307 307 307 308 308 309 310 313 315 314 311 310 309 310 311 312 313 313 312 311 310 311 313 314 315 316 315 315 315 315 316 316 317 317 317 328 336 339 341 341 340 341 339 338 338 337 338
301 301 301 301 301 301 301 301 300 300 300 300 300 300 300 301 302 303 303 302 302 302 302 302 302 303 303 303 303 304 306 306 306 308 308 309 309 308 307 307 307 307 307 307 308 308 309 310 312 314 313 312 311 310 310 311 312 313 312 312 311 310 310 313 314 315 316 314 314 315 316 316 316 318 316 321 338 343 339 342 341 340 341 339 339 338 338 338
302 302 302 302 302 301 301 300 300 300 300 299 300 300 300 300 301 301 302 302 302 302 302 302 302 303 303 303 303 304 304 305 306 307 308 308 308 307 307 306 306 307 307 308 309 309 308 310 311 312 313 312 311 311 311 311 312 312 312 311 310 310 310 313 315 315 316 315 313 315 316 315 317 319 315 325 344 344 340 343 341 340 341 339 339 338 337 337
302 302 302 302 302 301 300 300 300 300 299 299 300 300 300 300 301 301 301 301 301 301 301 301 302 302 303 303 304 304 304 305 306 306 308 308 307 307 306 306 306 307 308 308 309 309 308 309 309 311 312 311 311 311 310 311 311 312 312 311 310 311 312 313 315 315 315 315 314 315 314 315 317 317 318 331 344 342 339 342 340 340 341 339 341 338 336 336
302 302 302 302 302 301 300 300 299 299 299 299 300 300 300 301 301 301 301 301 300 300 300 300 301 302 302 304 304 304 303 304 305 306 307 307 307 306 306 305 306 307 308 308 309 309 308 308 309 310 310 310 310 310 310 310 312 312 312 311 310 312 311 311 313 314 315 315 317 316 314 317 315 322 335 341 341 340 339 340 339 339 340 340 340 337 335 336
302 302 302 301 302 301 300 299 299 299 300 300 301 300 301 301 301 301 301 301 300 300 300 300 301 301 302 303 304 304 303 304 304 305 307 307 306 306 305 306 306 308 308 308 309 309 309 309 309 310 310 310 310 310 311 310 311 312 311 311 310 312 311 312 314 315 315 316 319 316 312 316 314 327 344 345 341 341 340 340 339 339 339 339 338 336 335 337
302 302 301 301 302 302 300 299 300 300 300 300 301 301 301 301 301 301 302 302 301 300 301 301 301 301 302 303 304 304 303 304 304 305 306 307 307 306 306 306 306 308 308 308 308 309 310 310 310 310 310 310 309 310 311 310 311 311 312 312 311 312 312 313 315 314 312 313 318 315 311 315 317 333 346 345 342 344 340 340 341 339 339 338 339 338 337 338
301 301 300 300 301 302 300 300 300 300 299 300 301 300 300 300 300 301 302 302 300 300 301 302 301 301 302 303 304 304 304 305 304 305 305 306 307 307 307 307 307 308 308 308 309 309 310 311 310 310 310 310 309 310 310 311 311 310 312 313 312 314 312 312 313 311 311 312 317 316 314 316 316 331 346 345 343 345 341 342 342 341 341 339 340 341 339 339
300 300 300 299 300 301 301 300 300 299 300 300 301 300 300 301 301 301 302 301 301 304 303 301 300 301 303 304 304 304 305 306 305 305 305 305 307 307 307 307 307 307 308 309 309 309 311 311 311 310 310 310 309 309 310 310 310 310 313 313 313 313 311 312 312 310 313 314 316 315 315 316 312 323 343 345 343 344 342 343 343 341 342 341 340 341 340 339
300 300 299 300 300 300 300 300 300 300 300 300 300 301 301 301 301 302 302 301 303 306 305 302 301 301 302 304 304 304 305 306 305 305 305 305 307 306 306 307 307 308 308 309 309 310 311 311 311 310 310 310 309 309 310 310 310 310 313 313 313 313 312 314 311 311 316 314 312 313 312 314 310 320 341 345 344 346 344 343 344 342 341 341 340 340 340 339
300 300 300 300 300 300 300 300 300 300 300 300 300 300 301 300 301 302 301 301 303 305 305 305 305 303 303 304 304 304 304 304 305 306 305 305 306 306 306 306 307 308 307 308 309 310 310 311 312 311 310 310 310 310 310 310 311 312 313 314 313 313 313 313 313 313 314 314 312 311 310 312 310 319 339 346 345 345 345 343 343 343 341 341 340 340 340 339
300 300 300 301 300 300 301 300 300 300 300 300 300 300 300 301 302 302 301 301 302 304 305 305 305 305 305 305 304 304 305 304 305 306 305 306 306 306 307 307 308 308 307 308 309 310 311 311 312 312 310 310 310 311 310 311 312 313 313 312 312 313 313 315 317 314 313 318 318 311 309 313 310 315 332 344 345 344 344 343 343 343 342 342 342 341 340 340
299 300 301 301 301 301 301 301 301 300 300 300 300 300 301 301 301 302 302 302 303 305 306 305 305 305 306 306 305 304 305 305 305 305 306 306 306 306 307 308 308 308 309 308 309 310 310 311 312 312 311 312 311 311 311 311 312 313 313 312 311 312 313 313 315 314 315 322 321 312 310 312 311 315 326 337 342 342 341 342 343 343 342 342 342 341 341 341
299 300 301 302 302 301 301 301 301 300 300 300 301 301 302 302 302 302 302 303 304 306 305 305 305 305 305 306 307 305 304 304 304 305 306 305 306 307 307 308 309 309 309 308 309 310 310 311 311 312 313 312 311 310 311 311 312 312 311 312 312 312 313 313 314 315 316 320 317 312 312 310 312 320 327 335 341 341 340 340 343 343 342 342 342 341 341 342
300 301 302 303 302 302 302 302 301 301 300 300 301 301 302 302 302 302 302 304 305 306 305 305 305 305 305 306 308 306 303 303 304 305 306 305 306 307 307 308 308 309 310 310 310 310 311 312 310 312 313 312 312 310 310 311 311 312 310 311 314 314 314 315 316 315 316 317 313 311 314 311 311 318 323 336 342 341 340 340 341 342 342 342 342 341 342 343
301 302 303 303 302 302 302 302 301 300 300 301 302 302 303 302 302 303 304 305 305 305 305 305 305 305 306 307 309 306 303 303 304 306 306 306 306 307 307 307 307 308 310 311 311 311 313 315 312 311 312 312 313 311 312 312 311 312 311 312 314 314 316 316 315 316 318 317 313 310 313 311 314 325 327 334 341 340 340 342 342 342 341 342 342 342 343 343
302 303 304 304 303 303 302 302 301 301 301 302 302 303 304 303 304 305 305 305 305 305 305 305 306 306 308 308 308 307 305 305 305 306 306 306 307 307 307 307 307 308 309 312 312 311 312 313 312 312 313 312 313 312 313 313 311 313 312 311 312 315 321 319 314 317 319 318 317 315 315 315 323 340 339 332 339 340 340 343 343 343 343 343 343 343 342 344
303 304 304 304 304 303 302 302 301 301 301 302 302 303 304 303 304 304 305 305 305 305 306 305 307 308 309 309 307 307 306 306 307 306 306 306 307 307 307 307 308 307 309 313 314 312 314 314 311 313 313 311 312 313 313 313 313 314 311 310 312 315 321 319 315 317 318 320 323 317 315 319 325 339 343 336 337 340 340 344 344 344 345 344 344 343 342 343
303 304 305 305 304 303 302 301 301 301 301 302 302 303 303 303 304 303 304 305 305 306 306 306 308 309 309 309 308 307 306 306 307 306 306 307 307 308 307 307 309 308 309 312 314 314 318 318 313 312 313 312 313 313 313 314 314 313 310 310 314 313 315 319 318 317 317 321 322 314 312 318 321 329 339 337 338 340 341 343 345 345 346 345 344 344 343 343
303 305 305 305 304 303 302 301 301 302 302 303 303 303 303 303 303 303 304 305 305 306 307 307 308 309 309 309 309 309 308 306 306 307 307 307 308 308 307 307 309 309 309 311 313 315 318 317 313 311 314 312 313 314 314 314 313 312 312 312 314 314 314 318 319 318 318 318 319 316 313 316 320 325 330 333 337 339 338 341 345 346 346 345 345 345 343 342
304 305 305 304 303 303 303 302 302 302 303 304 304 305 304 303 303 304 304 305 306 306 307 307 308 308 308 308 309 310 310 307 307 308 307 306 307 308 307 308 308 309 310 309 312 316 319 321 316 312 314 314 313 315 315 315 314 312 312 311 312 315 317 316 316 318 319 319 319 318 315 317 324 329 328 330 335 336 337 342 345 346 346 345 345 344 343 341
304 305 305 304 303 303 303 302 302 303 304 304 304 304 304 304 304 304 305 305 306 306 306 306 307 308 307 308 309 310 311 310 307 308 308 306 306 307 307 308 308 309 310 308 311 315 318 325 323 313 312 314 313 313 314 314 314 311 311 312 310 311 315 317 316 314 318 322 321 319 319 321 326 331 330 329 332 333 337 343 345 345 345 344 344 343 342 339
304 306 306 304 303 303 303 304 304 304 304 305 305 304 304 305 306 305 305 306 306 306 306 306 306 307 307 308 309 310 312 313 310 307 308 306 306 308 307 308 308 308 310 309 310 313 318 326 325 316 313 314 312 313 313 312 313 311 311 313 313 313 314 315 316 312 312 320 322 321 325 330 334 338 335 330 330 332 337 342 344 344 344 343 343 341 339 337
304 306 307 304 304 303 304 305 305 305 306 306 306 305 305 306 306 306 306 307 307 306 306 306 306 307 307 308 310 311 312 314 311 308 308 306 307 309 307 308 309 307 310 310 308 316 324 324 322 317 314 313 313 313 313 312 312 311 312 313 314 315 313 315 322 321 312 314 320 319 321 332 343 345 338 332 328 328 334 341 342 342 342 342 341 339 338 336
304 305 306 305 304 303 305 305 305 306 307 306 306 306 306 306 306 307 307 307 307 307 307 307 307 308 309 309 311 313 313 314 312 310 310 308 307 308 308 308 309 307 310 311 310 318 323 320 318 317 314 313 314 312 312 313 312 311 312 312 312 314 313 316 326 328 317 315 320 316 317 330 344 345 341 339 335 333 334 337 340 341 340 340 339 338 338 337
303 304 306 306 305 304 305 305 306 306 306 306 306 307 306 306 306 307 308 307 308 308 308 308 308 309 310 310 312 313 313 315 314 311 311 310 308 309 309 308 309 308 309 312 314 318 319 319 319 319 316 314 314 314 313 312 312 313 314 312 312 314 312 314 319 319 317 320 320 320 325 334 342 345 345 347 351 352 345 337 338 340 340 340 339 338 339 338
304 305 306 305 305 306 306 306 306 306 306 307 307 307 308 308 307 307 308 308 308 308 309 309 310 310 310 311 312 313 313 314 314 312 311 310 310 310 308 308 309 308 310 314 317 319 320 322 323 323 324 321 317 315 314 312 312 314 315 313 313 312 311 314 315 313 319 322 318 324 334 337 338 344 348 349 350 353 349 340 338 340 340 340 340 339 340 338
305 305 305 304 305 306 306 306 308 308 307 307 308 308 309 309 309 309 309 309 309 309 310 310 310 311 312 312 313 314 313 312 313 312 311 311 313 311 308 309 309 308 314 319 320 319 320 321 322 324 327 324 317 314 314 314 313 313 314 313 312 313 313 314 313 317 326 324 315 326 339 336 336 344 348 349 348 348 348 344 341 342 342 341 341 340 339 338
305 304 303 303 304 305 305 305 306 306 306 307 309 309 309 310 310 310 309 310 310 309 310 311 311 312 314 313 314 315 313 312 313 314 313 312 313 312 309 309 309 312 319 320 317 319 322 320 320 321 322 319 315 314 314 314 313 312 314 314 313 315 315 316 318 326 334 327 319 328 338 333 334 343 346 347 347 346 347 345 344 344 343 342 341 340 338 337
304 303 302 303 303 303 303 303 303 304 305 308 310 309 309 310 311 311 310 309 309 309 310 312 312 313 314 313 314 316 315 317 318 318 319 318 315 313 311 309 308 313 318 316 313 319 324 323 321 320 319 317 314 314 315 314 313 313 314 315 315 315 316 318 323 328 332 331 332 336 336 332 334 342 345 345 344 345 344 344 343 342 341 341 340 339 338 336
302 302 301 302 302 302 302 302 303 305 306 309 310 310 310 311 311 311 311 310 309 309 310 313 313 312 313 313 315 317 317 320 321 320 320 320 319 317 313 311 311 311 313 312 314 321 324 322 322 320 319 319 316 315 314 313 313 313 313 316 317 317 318 319 321 324 326 332 340 340 333 329 333 340 343 342 341 342 341 341 341 340 339 340 339 339 337 336
301 301 301 301 301 301 302 303 304 305 306 309 311 310 310 311 311 312 312 312 312 310 311 313 313 312 313 314 315 317 317 318 319 319 320 320 320 319 314 313 313 311 310 311 316 322 321 319 320 318 318 322 321 317 315 314 313 313 313 316 318 319 321 319 319 323 323 325 335 339 336 335 336 338 341 340 339 341 340 340 340 339 338 338 338 337 336 335
300 300 301 301 302 302 302 303 304 305 307 309 310 309 309 310 311 311 312 312 313 312 312 313 313 313 313 313 315 317 317 316 318 318 318 319 319 319 316 313 311 312 312 312 316 320 320 321 324 319 320 325 323 317 319 319 315 314 315 316 317 319 322 320 321 324 323 323 328 330 335 343 342 338 339 339 339 340 340 340 339 337 337 337 337 337 335 333
299 299 299 300 302 302 302 303 303 305 308 308 307 308 309 309 309 310 312 312 312 312 312 312 313 314 315 314 316 319 318 317 317 316 315 316 317 317 317 314 312 314 315 315 319 321 319 322 325 320 320 325 322 319 324 323 317 317 321 322 320 320 322 321 321 324 325 326 329 328 332 341 341 338 339 340 339 339 339 338 337 336 336 336 336 335 333 331
Wind_Speed
17 17 17 16 16 15 15 16 16 15 15 16 16 16 16 16 16 16 16 16 15 15 15 16 19 21 22 25 27 28 32 32 30 23 19 22 21 17 17 18 19 17 13 14 14 11 8 9 11 15 13 8 6 5 8 8 5 5 4 6 8 7 8 7 8 8 6 8 8 11 12 12 11 6 3 2 6 5 6 4 4 9 8 15 25 33 35 35
17 17 17 17 16 16 16 16 16 16 15 15 15 16 16 16 16 16 16 17 17 16 16 15 16 20 22 24 27 28 31 31 26 23 26 26 21 21 20 20 20 16 11 10 12 11 8 7 10 12 8 5 5 6 6 6 6 6 4 6 9 8 8 7 10 9 8 11 9 10 12 12 9 4 3 2 4 5 6 1 6 12 11 19 26 31 33 34
17 17 17 17 17 17 16 16 16 16 16 16 15 15 15 16 16 16 16 16 17 17 17 16 15 17 20 24 26 28 30 26 18 16 20 18 16 21 22 22 20 17 14 12 12 13 12 11 13 11 6 6 5 6 8 6 7 7 5 7 9 9 8 9 11 11 11 12 11 12 6 3 5 1 0 3 6 4 5 4 7 13 14 18 19 25 29 29
17 17 17 17 17 17 17 17 17 17 17 16 17 16 16 16 16 16 16 15 16 16 17 17 16 16 17 22 24 27 26 17 7 5 8 9 5 10 21 26 23 20 18 16 15 15 16 15 14 10 7 7 6 8 9 8 6 6 7 9 8 8 9 12 13 13 14 12 11 13 5 1 4 2 3 3 5 1 1 4 8 16 17 18 18 20 24 23
18 18 18 17 17 17 17 17 17 17 18 17 17 17 17 17 16 17 16 15 15 16 16 16 16 16 15 20 22 24 17 6 1 2 3 7 8 2 12 22 23 21 19 16 14 15 17 14 11 8 6 6 8 8 9 11 8 6 10 12 9 7 9 12 13 15 16 14 13 14 8 3 1 2 4 2 2 3 5 5 9 20 19 20 20 19 20 18
18 18 18 18 18 17 17 17 17 17 17 17 18 18 18 18 17 17 17 16 16 15 16 15 16 16 14 17 21 19 8 3 2 4 5 7 7 6 5 12 17 18 18 14 12 12 12 10 8 6 4 5 10 11 9 11 11 8 9 11 11 11 12 9 10 14 14 13 14 12 8 4 4 3 4 1 3 4 5 4 9 21 20 21 21 19 19 18
19 19 18 18 18 18 18 18 17 17 17 17 17 18 18 18 19 19 18 17 16 15 15 15 15 15 13 15 17 13 6 10 16 8 11 13 7 7 5 6 10 12 15 14 12 11 9 10 9 6 6 6 9 11 11 11 13 12 10 10 11 13 15 12 12 16 13 11 11 5 4 3 2 3 1 3 6 4 4 5 9 20 17 19 18 17 18 17
19 19 19 19 19 19 19 19 18 18 18 18 18 18 18 18 19 20 19 18 17 16 15 14 15 14 12 12 11 9 6 18 31 20 16 14 8 7 6 5 9 10 12 15 14 11 9 10 11 7 7 7 8 10 11 12 13 14 13 11 10 11 13 13 13 18 17 11 10 5 2 4 3 3 2 4 8 4 5 2 11 21 17 17 17 18 17 14
19 19 19 19 19 20 20 20 20 19 20 19 19 19 19 19 19 20 20 19 18 16 15 15 15 13 11 10 9 9 11 24 33 23 16 13 12 11 9 8 12 13 13 15 16 14 10 8 10 10 7 8 9 9 11 11 10 12 13 12 11 11 11 12 13 18 17 9 8 9 6 3 3 6 5 5 7 4 3 2 9 20 18 16 15 16 16 15
19 19 19 19 19 20 20 20 20 20 20 20 20 20 20 20 20 20 20 20 19 17 16 14 14 13 12 11 10 11 12 21 25 20 16 14 18 17 11 12 14 15 16 16 17 15 11 9 10 9 8 8 8 8 11 11 8 9 12 13 14 13 11 12 12 14 14 9 8 8 6 4 1 1 5 4 5 6 4 4 5 17 18 16 16 14 14 15
19 19 20 20 20 20 20 20 21 21 21 20 21 21 21 21 21 21 21 20 20 19 17 15 15 14 14 12 10 10 9 14 20 21 22 22 24 24 16 15 15 16 14 14 18 18 16 15 11 7 6 6 7 9 10 10 9 10 12 13 16 15 11 12 13 12 10 8 8 8 5 5 4 6 8 6 5 6 6 8 7 10 16 15 16 13 11 11
20 20 20 20 20 21 21 21 21 21 21 21 21 22 22 22 22 22 22 21 21 19 18 17 16 15 16 12 12 20 20 23 31 33 33 30 26 26 22 19 17 17 16 10 14 20 22 20 16 10 6 4 6 7 7 9 10 12 13 10 13 16 14 15 14 13 8 5 7 7 6 7 8 8 8 8 7 7 7 9 10 5 13 14 14 13 9 10
21 21 21 21 21 21 21 22 22 22 22 22 23 23 23 23 23 23 23 22 21 20 19 18 17 18 16 9 13 29 31 30 36 36 36 32 26 26 24 20 18 18 19 16 13 16 19 21 19 13 10 7 5 5 6 9 9 11 12 8 8 10 13 15 13 13 10 6 4 6 6 7 8 9 8 7 8 9 8 9 10 3 11 11 10 10 8 8
21 21 21 21 21 21 22 22 23 23 23 24 24 24 24 24 24 24 24 24 23 21 19 17 18 18 13 9 17 32 32 32 37 37 38 33 24 23 23 20 20 20 20 19 19 19 17 19 17 12 11 10 7 7 9 9 7 8 10 7 6 5 6 10 12 13 12 8 5 6 5 6 6 8 10 10 10 10 12 12 5 6 10 9 10 10 8 8
20 20 19 21 22 22 23 23 24 24 24 25 25 25 25 25 25 25 25 24 23 20 18 18 17 14 10 9 18 26 25 28 36 37 38 32 21 18 19 18 20 21 20 20 20 19 18 17 12 9 9 9 9 9 8 7 5 6 8 7 6 5 3 6 9 12 11 8 7 8 5 5 7 9 10 12 12 12 13 8 7 14 13 12 12 10 9 8
22 20 19 20 21 22 23 24 24 25 26 26 26 27 27 27 26 26 25 23 22 19 15 14 15 12 7 9 16 19 18 22 30 30 30 30 24 19 18 18 18 19 19 21 21 17 17 13 7 7 8 8 10 7 5 5 5 6 6 5 5 6 4 4 6 10 13 10 8 11 7 3 6 9 10 11 12 15 9 7 14 15 15 14 11 8 9 7
22 21 20 20 20 22 23 23 25 26 27 26 27 28 27 26 24 24 24 22 19 17 13 12 13 11 9 12 16 16 17 21 25 24 24 27 27 23 19 15 13 15 16 19 20 15 13 9 4 6 7 7 7 6 6 7 6 5 4 4 5 6 6 5 5 7 14 14 10 12 10 7 7 8 11 11 11 14 7 13 14 13 14 13 11 10 10 9
22 22 21 21 21 22 23 24 26 27 27 26 26 25 26 26 24 25 24 18 13 12 12 13 12 8 7 12 14 15 15 17 20 22 23 24 26 26 21 13 10 11 11 11 13 11 7 5 4 4 6 8 8 8 8 7 6 5 5 4 4 6 7 8 7 6 12 17 14 12 11 12 11 8 10 11 9 10 10 13 12 14 15 12 11 11 9 10
22 22 22 23 22 22 23 25 26 26 26 24 23 22 23 23 19 18 16 10 5 5 6 7 8 5 6 9 15 17 15 15 18 19 21 23 23 23 21 16 12 10 9 7 8 10 6 4 5 6 7 10 10 9 8 7 7 8 7 6 6 6 7 8 10 9 11 14 15 13 9 12 14 12 12 8 2 9 11 13 11 11 12 11 11 10 10 11
22 22 22 23 23 22 22 25 26 25 23 21 21 18 15 12 6 3 5 7 7 10 9 8 10 11 12 14 12 13 18 18 14 11 16 21 22 18 15 13 11 9 9 8 8 9 7 6 8 8 8 9 12 11 9 9 11 11 8 8 10 8 7 8 10 13 13 11 14 15 11 12 14 13 14 5 12 13 11 11 10 11 11 11 12 11 12 11
22 22 22 22 23 24 23 24 25 24 22 20 17 11 6 6 5 4 4 5 8 13 16 16 16 15 17 20 19 16 16 18 14 9 14 17 21 16 10 11 10 8 9 11 9 7 8 9 10 9 9 10 12 12 10 11 15 13 8 8 10 9 9 11 11 13 13 9 11 16 14 13 12 12 13 8 14 12 12 12 11 11 10 9 13 13 11 9
23 22 23 23 23 24 24 24 24 24 23 18 12 8 7 9 12 14 11 6 9 12 15 17 20 18 18 27 30 21 13 13 16 15 14 15 15 14 9 11 11 7 10 12 8 8 10 10 10 11 10 9 11 13 13 13 14 12 8 6 6 8 9 11 14 15 11 7 8 16 14 11 12 10 7 11 13 12 14 16 16 15 12 11 13 13 11 10
24 23 23 23 23 25 24 25 27 26 21 13 10 11 12 15 17 18 11 5 9 12 13 14 17 16 15 24 27 20 14 12 14 15 13 14 10 11 11 11 11 9 11 14 10 9 8 8 11 13 11 12 12 14 16 13 10 10 8 6 5 6 7 8 13 15 11 8 9 14 12 9 11 4 4 8 11 11 10 11 14 15 16 15 13 13 14 14
24 23 23 23 24 23 23 27 26 20 13 11 12 11 13 15 15 13 6 3 8 11 14 17 16 12 15 21 20 13 11 11 12 14 13 14 9 9 11 11 12 10 11 16 15 10 8 8 12 14 14 16 14 12 14 10 7 10 10 8 6 9 9 7 9 10 9 9 10 13 9 7 8 4 7 4 7 10 8 7 8 9 12 13 12 11 13 15
24 24 25 25 24 22 25 24 16 14 16 11 8 10 14 13 12 9 4 2 5 8 12 15 12 11 19 24 20 11 10 12 12 14 12 12 11 8 8 9 9 10 13 17 15 10 8 10 14 17 16 16 15 12 13 11 7 9 12 11 10 12 12 9 9 7 4 5 7 10 7 6 5 8 8 5 7 9 7 8 9 8 10 12 11 11 11 12
26 26 27 27 24 24 22 12 10 18 19 9 6 14 16 11 11 8 3 2 4 5 5 7 6 10 17 16 13 9 9 13 14 17 16 14 13 10 7 6 6 9 12 13 10 6 7 12 15 17 15 16 15 11 13 14 8 7 10 11 12 15 15 13 11 7 4 4 7 7 7 4 3 7 9 9 11 10 9 8 9 9 11 11 11 12 12 11
28 27 28 28 24 22 15 8 14 18 11 6 11 16 14 12 12 7 2 2 3 5 4 3 4 11 15 11 12 11 6 5 8 16 18 17 14 10 9 7 6 9 9 8 7 6 9 13 16 17 15 14 14 11 12 14 10 6 8 10 12 15 17 16 11 7 4 6 8 8 7 3 3 4 9 13 13 11 10 9 8 8 8 10 12 12 13 13
29 30 31 28 24 21 15 14 15 12 10 13 15 13 11 12 11 4 2 3 2 4 2 2 4 6 11 9 15 12 7 2 5 12 17 19 15 8 9 10 8 10 11 8 7 7 10 13 15 18 15 11 11 11 12 13 10 7 8 11 12 13 16 15 9 6 4 6 6 8 7 5 3 2 7 11 12 10 10 11 10 10 9 9 10 11 12 12
32 33 31 26 23 19 14 12 13 12 15 17 13 10 11 10 6 4 1 3 3 4 2 4 10 3 3 6 15 13 10 6 3 6 12 16 16 9 8 10 10 11 13 11 7 8 10 12 13 16 13 10 11 12 13 13 10 7 9 11 12 12 12 11 8 4 3 4 7 8 7 5 2 3 7 7 9 10 10 10 11 11 11 10 9 10 11 11
33 33 29 24 21 16 12 11 13 13 13 12 10 8 7 5 3 2 3 2 3 4 2 3 7 9 10 4 12 14 13 13 7 5 11 10 12 10 6 8 9 8 11 12 8 8 11 11 11 12 12 10 10 12 15 14 9 9 11 10 10 11 7 6 5 1 1 4 6 10 11 8 2 3 8 8 9 13 12 10 10 11 11 11 11 11 11 10
35 34 28 24 19 13 10 9 11 10 9 9 10 7 2 3 2 1 3 0 1 4 2 2 6 9 13 8 5 12 16 15 9 7 10 7 8 9 6 6 6 5 6 8 8 10 13 12 10 8 12 12 10 11 14 14 10 9 9 7 7 6 3 3 3 2 2 5 5 9 11 10 5 5 8 12 13 16 16 14 15 15 14 13 12 11 10 9
38 34 27 21 15 11 9 9 10 11 9 8 9 5 1 1 1 3 2 1 2 2 1 3 6 7 11 13 7 11 15 11 10 9 11 8 7 8 8 7 5 4 5 6 8 10 9 11 10 8 12 14 11 9 10 12 10 9 8 6 5 4 3 5 4 1 4 4 6 10 10 7 6 6 7 13 16 17 17 17 19 19 17 15 13 12 10 8
37 28 20 15 9 9 11 11 10 9 7 7 7 3 0 1 2 2 2 1 1 1 2 4 8 10 11 10 7 9 12 9 11 11 12 10 7 8 11 10 6 5 5 5 7 7 5 8 13 11 10 13 12 8 8 9 9 10 9 6 5 4 5 5 3 1 2 4 7 8 8 4 3 5 7 13 19 20 18 17 20 21 20 18 14 12 10 9
31 19 14 13 8 9 11 9 8 7 7 6 4 2 2 3 2 2 3 3 3 3 4 6 10 12 10 7 6 7 9 9 12 11 12 10 8 7 10 12 13 8 3 5 5 6 6 6 12 11 7 13 13 8 8 7 6 9 9 5 4 3 5 5 2 2 3 4 4 3 5 3 3 6 8 13 18 17 14 12 14 17 16 15 13 12 11 9
25 15 13 14 10 8 7 6 5 5 5 4 2 2 3 2 2 2 2 3 3 4 6 9 10 7 4 5 8 8 7 7 10 10 9 8 7 7 9 10 13 12 5 5 5 6 6 5 11 11 7 14 14 8 9 8 4 7 7 5 6 4 4 4 3 4 3 1 2 2 2 2 3 5 4 9 15 14 14 12 12 13 12 13 12 11 12 10
23 18 14 12 9 5 5 5 5 5 3 3 2 3 3 2 2 2 3 3 3 4 8 10 6 2 2 2 5 8 9 7 8 8 7 7 7 8 9 8 11 13 8 5 3 5 5 3 11 13 8 15 17 9 10 11 5 5 6 6 6 4 3 5 2 1 4 2 3 2 1 3 1 5 6 10 16 12 14 16 15 15 15 14 13 12 12 11
22 16 13 13 10 5 5 5 6 6 2 2 2 3 3 2 3 3 4 5 1 2 5 6 3 3 4 2 3 6 8 7 8 7 5 7 7 8 11 10 11 13 12 8 3 3 4 3 12 17 11 14 15 6 5 7 5 5 6 5 3 5 3 4 3 0 3 2 3 2 3 1 3 3 3 12 18 12 14 16 15 15 16 14 13 13 13 13
19 11 11 12 8 4 5 5 7 5 2 3 4 6 4 3 5 5 6 5 1 1 2 3 1 2 3 2 3 5 6 6 7 6 5 5 4 8 12 10 11 15 16 12 5 3 4 2 7 14 10 8 8 5 1 5 4 4 5 4 3 3 4 1 3 4 4 3 2 3 6 4 4 4 2 11 16 14 14 16 16 15 14 13 13 13 13 12
14 7 5 3 1 3 5 5 6 3 2 3 4 5 4 5 7 8 6 1 1 1 3 2 1 1 2 3 5 8 7 6 7 4 4 4 3 9 13 9 10 15 16 12 6 4 5 3 3 7 9 5 3 4 3 5 4 4 4 6 5 4 3 2 3 4 5 4 2 3 5 4 3 5 7 10 13 15 15 14 16 16 14 13 12 12 12 11
8 3 1 2 2 2 4 4 4 3 3 3 3 5 5 7 8 9 7 3 0 2 2 2 2 2 4 5 5 5 5 3 6 4 3 5 5 9 13 11 10 11 12 11 8 4 3 4 3 4 7 6 2 3 5 5 3 4 5 7 7 4 3 3 1 2 4 5 4 3 3 5 4 2 6 11 13 15 17 15 15 15 15 15 13 13 12 11
5 2 1 2 2 4 5 2 4 3 3 3 4 7 8 7 7 8 7 5 3 2 2 3 4 3 4 5 5 3 3 3 5 6 3 6 7 5 10 14 12 8 8 8 8 5 2 4 4 4 5 5 5 4 6 8 7 5 5 5 5 5 4 3 1 3 3 4 4 5 3 6 4 4 3 9 13 14 17 17 14 14 16 15 13 13 13 12
4 2 2 2 5 6 3 2 3 3 2 3 5 8 8 7 7 7 6 5 4 2 3 3 4 5 4 5 6 5 4 4 4 6 4 7 9 5 8 16 15 8 5 4 6 4 2 4 4 3 2 3 5 6 9 13 10 6 6 4 4 6 5 5 3 4 3 3 4 5 3 7 5 5 5 6 11 13 17 18 15 14 15 15 12 12 12 13
2 5 7 5 8 6 3 4 4 3 3 5 7 8 8 7 5 6 5 3 3 2 2 3 4 4 4 5 6 6 5 4 3 7 5 6 9 8 10 16 15 9 5 3 4 3 3 4 4 3 2 3 6 7 11 14 10 6 8 6 3 4 5 4 4 3 3 3 4 4 3 5 6 6 4 4 8 9 13 17 16 13 11 12 11 11 12 13
3 5 5 5 8 5 3 3 4 4 5 8 10 10 9 5 3 5 4 3 2 1 2 3 3 4 5 6 7 5 5 4 3 8 7 4 8 9 13 17 15 8 5 4 4 2 2 3 5 5 4 6 8 8 10 13 9 4 5 7 5 5 8 5 3 2 3 4 6 6 3 5 5 5 7 9 10 10 9 14 17 13 11 10 10 10 12 14
4 3 1 1 5 4 3 3 5 6 8 10 12 11 9 4 3 6 5 4 3 3 3 4 4 6 7 7 7 6 7 5 3 8 8 4 5 7 13 17 14 9 6 5 4 3 3 3 5 6 6 7 7 6 5 6 5 1 2 6 8 7 11 10 4 1 4 5 5 6 2 2 3 5 9 11 12 11 9 12 15 14 13 12 11 10 12 13
3 2 2 2 2 2 3 4 5 5 6 9 9 8 7 6 4 3 4 3 2 2 4 5 6 7 5 6 7 6 7 6 5 7 10 5 3 4 12 16 12 10 9 7 4 2 3 2 3 5 5 5 3 2 3 4 4 3 4 5 9 8 8 8 5 4 4 3 2 4 7 6 4 5 7 10 11 11 10 11 12 12 11 12 12 11 11 12
2 2 3 4 3 3 4 4 4 5 8 8 5 5 7 8 6 2 2 1 3 6 6 5 3 4 4 6 6 5 8 8 5 9 10 4 2 3 11 15 12 10 10 7 3 1 4 2 4 4 3 5 4 3 6 7 6 6 5 7 8 8 6 6 6 7 5 3 3 3 10 12 5 2 5 9 11 10 9 10 10 10 10 10 11 12 13 13
3 2 2 4 3 4 6 7 9 11 13 10 4 4 9 9 8 5 2 3 5 6 4 2 3 7 8 7 4 3 7 8 6 7 7 4 4 3 9 14 11 5 3 3 3 1 5 2 6 6 4 5 6 6 8 8 6 6 8 9 9 9 8 7 6 5 4 6 5 5 11 12 9 8 6 6 10 11 10 9 9 9 11 11 13 13 13 14
3 2 2 4 3 6 8 11 13 13 13 10 4 4 8 9 9 6 3 2 4 4 2 3 6 9 10 8 4 3 5 6 5 4 6 9 9 2 5 9 8 1 5 1 2 1 4 1 4 5 4 6 6 9 11 12 10 9 9 10 10 10 10 7 5 4 4 8 9 9 11 8 8 11 10 8 9 11 10 9 9 10 11 12 13 13 13 13
3 3 3 3 4 6 7 9 10 10 9 8 5 4 7 10 10 8 4 1 3 4 1 3 8 10 10 9 5 3 3 3 5 5 5 9 9 4 4 1 1 3 3 1 2 3 4 1 1 3 2 6 6 6 7 12 14 12 10 10 8 6 7 8 7 4 3 5 8 10 10 4 2 8 12 11 11 11 11 11 11 10 11 12 12 12 12 12
6 6 6 5 5 5 6 6 7 7 6 5 5 7 10 11 12 12 7 3 4 3 2 4 8 8 7 8 6 5 6 6 7 9 8 7 7 7 6 3 1 1 2 3 0 3 4 1 3 4 2 4 5 3 3 2 11 12 9 10 8 4 4 6 6 6 5 5 6 8 8 3 3 9 12 10 12 13 13 13 12 10 11 14 13 12 12 12
9 6 5 4 4 4 5 6 7 6 4 6 10 11 11 12 14 12 8 3 3 6 6 3 4 4 4 7 7 7 7 7 8 9 8 7 9 11 9 7 4 3 4 1 2 3 4 3 2 3 2 4 5 1 6 4 6 8 6 7 7 6 6 4 2 4 5 5 5 6 6 7 10 12 12 10 11 12 12 12 11 11 11 12 13 13 12 12
Wind_Direction
348 347 347 347 345 344 344 346 346 343 340 337 333 330 328 324 316 308 299 290 289 294 301 308 312 317 320 317 318 325 329 324 316 307 279 261 255 248 251 265 270 272 269 258 256 263 266 257 250 239 231 229 222 225 239 237 219 205 193 217 233 226 225 216 223 235 242 256 256 262 262 262 256 218 199 108 88 87 67 23 17 33 65 123 134 140 141 149
345 343 343 343 343 342 341 343 343 342 341 338 334 330 328 327 324 320 314 303 294 289 292 299 305 312 316 315 318 327 328 318 304 286 274 271 261 245 244 254 256 252 244 237 240 239 240 239 233 228 219 218 215 214 225 227 220 217 194 210 228 224 226 225 235 242 245 253 254 259 264 274 269 198 183 136 113 107 105 136 80 74 91 115 129 136 141 153
342 340 340 339 339 339 338 338 337 338 338 337 334 331 330 328 325 322 319 315 307 298 294 292 296 306 312 313 318 329 326 314 298 274 279 287 261 236 232 239 242 243 239 234 238 238 244 251 243 228 207 220 221 207 211 215 222 222 206 221 226 218 234 243 247 252 250 256 265 268 265 278 291 34 319 137 131 120 129 180 115 112 127 127 135 140 146 156
340 339 338 337 336 335 334 333 332 333 332 332 332 331 330 327 325 323 319 317 313 310 301 294 293 295 308 313 316 328 325 308 289 257 284 323 309 229 225 234 240 244 244 241 243 248 262 272 267 251 216 215 219 215 213 210 215 219 215 229 226 202 223 237 246 259 261 267 268 267 264 218 297 353 321 79 105 107 189 230 146 139 145 141 146 146 151 159
336 336 334 334 334 332 332 331 329 329 328 328 329 328 326 323 323 321 319 317 314 314 307 301 296 292 306 311 316 328 325 299 296 79 24 13 19 348 232 236 240 243 243 240 242 251 264 272 277 270 240 214 210 217 219 212 212 233 232 234 233 216 227 227 231 245 252 262 261 265 269 226 296 303 283 75 126 215 220 252 141 146 156 153 153 151 155 159
330 330 329 328 328 328 327 327 326 326 326 326 325 325 324 321 319 317 318 318 314 313 308 305 298 294 302 306 316 320 304 281 324 76 23 343 354 343 270 240 239 238 234 229 230 241 252 251 252 255 253 227 210 213 220 214 210 230 243 237 230 227 242 244 243 245 241 250 255 264 275 220 166 229 280 299 234 215 215 283 131 151 161 154 153 153 158 158
325 325 324 322 323 323 322 322 322 321 322 323 322 322 321 320 318 314 314 314 313 313 307 305 299 295 299 309 315 300 253 262 266 280 315 297 305 314 283 243 233 220 211 209 212 223 231 234 232 225 239 242 218 213 219 221 218 225 237 238 230 221 234 246 261 264 257 261 263 266 319 315 172 193 289 297 270 210 215 312 127 148 152 149 153 153 157 157
328 326 325 322 321 321 320 319 318 317 317 318 318 318 317 318 317 314 311 309 310 310 306 304 300 296 296 308 310 284 243 253 260 278 300 279 278 284 250 230 223 206 202 206 209 215 222 229 229 224 232 240 229 216 216 224 226 227 228 233 235 222 226 231 240 258 262 265 271 275 333 320 320 335 309 270 275 218 183 309 123 140 148 153 155 153 156 151
331 330 329 326 324 322 320 318 317 315 313 313 313 313 313 314 314 314 311 307 305 305 304 302 297 294 287 287 287 277 258 252 257 269 292 298 302 278 230 235 235 214 211 215 218 221 224 227 226 227 237 247 243 227 217 222 228 226 225 230 237 231 228 228 226 242 254 253 254 261 258 262 329 343 311 247 259 261 182 215 138 141 152 159 158 156 153 147
335 333 331 329 327 324 322 319 317 314 312 310 309 309 308 309 310 310 308 306 304 301 300 298 294 290 279 269 265 268 265 263 264 269 291 314 314 300 255 247 254 232 217 211 218 225 227 230 229 235 251 260 257 243 225 222 234 234 227 227 235 237 231 236 236 237 248 244 216 220 231 234 189 269 273 267 265 277 285 280 171 152 161 164 160 157 148 144
335 333 332 330 327 326 324 321 319 316 314 310 307 306 304 304 304 304 305 304 302 298 297 295 293 286 270 260 253 254 264 277 281 283 292 300 305 307 287 263 267 260 242 212 210 220 230 241 244 241 241 249 262 265 250 237 246 248 239 229 230 236 236 239 245 246 248 243 209 190 204 210 198 217 236 254 261 258 262 276 260 173 165 163 153 148 142 141
333 332 331 330 328 326 324 321 320 317 315 312 308 305 301 300 299 299 300 299 299 296 295 292 290 286 270 258 243 249 262 278 285 286 289 293 295 296 292 280 275 279 282 257 217 214 221 236 245 246 238 230 249 266 271 252 249 254 252 242 229 227 232 233 238 249 245 230 211 196 217 210 203 222 225 232 230 233 244 253 262 199 152 156 145 142 139 138
331 331 330 329 327 326 324 321 320 316 315 312 309 305 301 298 295 295 295 294 297 295 292 288 289 289 272 256 251 258 266 274 278 282 283 285 285 284 286 283 278 280 281 279 267 240 227 232 237 246 254 250 240 254 280 264 248 251 253 252 238 224 227 226 223 240 242 236 203 172 222 233 215 224 226 240 225 216 235 238 249 194 133 138 128 125 121 115
328 327 327 327 325 325 324 321 319 317 315 312 309 306 301 298 294 291 290 289 292 294 293 290 292 288 269 264 272 269 271 269 268 271 273 273 274 277 276 273 272 271 269 269 272 272 265 254 246 243 250 254 259 263 267 262 243 241 250 247 231 220 225 220 212 222 229 233 189 152 223 243 235 232 219 236 230 211 223 227 226 84 87 82 74 70 70 61
326 324 325 325 325 324 323 321 320 317 314 312 308 306 301 298 293 287 286 286 288 292 292 290 287 279 269 273 273 276 280 266 258 260 263 262 259 265 263 261 262 259 260 262 262 267 270 266 256 239 236 246 256 261 258 257 245 222 233 235 220 218 231 221 208 207 216 230 190 178 232 237 235 239 218 221 220 217 225 207 113 89 86 78 70 62 65 55
327 326 326 326 325 324 322 320 320 317 314 311 307 305 301 296 290 286 283 282 286 290 290 286 272 256 258 273 271 278 278 255 250 256 259 252 242 244 251 254 257 250 247 252 255 259 259 259 255 236 227 232 238 240 250 260 250 222 209 211 216 215 215 225 222 203 206 225 202 196 224 237 226 234 235 228 212 218 219 124 104 103 103 102 101 103 100 83
328 327 327 327 325 323 322 320 319 317 314 311 308 304 300 296 291 288 285 283 283 281 271 262 265 260 253 274 284 277 259 248 250 252 251 247 234 228 241 251 251 241 234 240 246 249 251 248 243 230 216 222 227 209 223 236 231 229 200 198 227 217 202 212 242 215 198 210 212 202 212 229 232 227 233 235 215 215 183 112 116 119 118 122 125 127 125 120
328 326 325 326 325 323 322 322 320 319 316 313 309 304 303 300 293 288 284 281 278 269 256 251 261 276 253 246 251 250 248 250 250 243 237 236 226 217 221 235 245 233 221 228 236 234 234 228 226 229 207 210 219 204 209 220 214 214 193 198 234 225 211 205 224 233 199 204 212 207 208 222 236 240 240 243 223 198 147 123 131 130 129 132 129 131 132 128
329 327 326 324 324 324 324 323 322 320 320 317 313 311 309 302 291 281 269 249 236 238 244 236 211 217 278 258 233 243 270 269 251 241 227 213 206 207 210 224 247 233 212 206 209 213 209 207 219 221 211 203 211 213 211 218 224 221 200 197 218 225 229 214 213 226 211 201 207 211 207 216 226 232 242 256 112 116 125 131 137 134 135 131 128 135 138 139
331 328 327 325 324 325 325 323 322 322 321 320 319 317 313 310 304 282 239 214 218 224 237 249 215 217 267 284 273 281 307 298 264 234 220 198 178 188 203 213 237 236 217 201 192 201 199 209 218 212 210 202 207 219 221 224 236 237 212 199 213 221 237 231 215 220 216 200 202 207 209 217 221 221 227 205 97 106 124 134 142 144 142 135 135 144 147 148
332 329 328 327 325 325 326 323 321 320 318 317 315 308 308 316 317 342 327 258 244 232 236 250 245 239 249 263 279 297 313 308 293 265 234 200 164 168 197 198 216 231 208 198 192 193 203 217 216 207 210 206 206 216 225 228 234 242 232 205 209 211 226 236 232 226 213 195 195 201 211 225 223 223 220 165 114 132 144 143 155 147 136 136 139 146 146 136
334 330 328 327 326 326 326 321 317 314 310 308 300 279 273 287 301 326 330 292 276 256 245 250 250 251 253 260 269 275 282 287 288 277 234 202 169 164 183 190 205 219 196 198 195 185 208 221 208 202 213 215 208 210 220 230 232 239 242 227 217 204 210 227 238 240 218 192 193 195 204 229 231 236 212 150 134 160 165 158 160 148 142 151 148 145 141 135
333 331 329 327 327 326 324 321 317 312 305 288 268 264 269 283 305 324 323 285 285 269 248 245 244 245 248 260 266 264 262 261 272 271 219 195 185 170 180 192 202 209 196 200 200 188 204 211 197 199 210 218 217 209 213 226 234 237 236 234 244 228 211 210 230 242 227 190 176 185 195 224 231 248 71 129 146 158 164 155 155 154 154 159 154 149 147 149
333 331 329 326 326 327 325 323 318 315 307 265 252 272 288 297 312 320 314 268 277 264 242 232 231 233 227 242 256 249 253 249 250 264 225 193 194 183 190 194 196 209 203 201 207 206 202 189 188 199 205 211 219 212 206 214 232 240 237 229 241 247 240 225 220 233 226 189 163 166 186 229 218 141 82 100 129 133 134 133 151 161 151 147 144 145 152 158
331 330 329 327 325 326 327 324 318 331 331 298 273 319 325 319 323 322 318 281 272 263 241 223 220 228 218 228 241 236 254 255 240 254 241 203 196 189 198 197 196 216 204 198 208 216 209 185 184 200 204 205 215 215 202 202 218 238 239 229 233 248 252 249 230 213 196 201 181 154 167 243 220 137 127 127 124 131 136 150 163 161 147 143 144 149 158 163
331 329 329 328 324 326 330 323 318 331 327 315 329 336 333 326 318 314 317 280 267 281 249 189 177 206 204 213 219 210 251 259 245 250 253 237 216 199 209 200 196 221 204 192 207 224 210 189 185 197 202 202 212 220 205 200 205 227 231 227 234 248 257 262 250 224 179 195 207 166 151 236 231 146 153 150 145 150 152 166 173 162 156 153 153 158 161 167
333 331 329 325 322 325 328 304 312 319 309 321 337 329 331 331 321 316 316 257 250 320 323 139 134 176 186 193 178 179 232 233 225 241 243 244 232 207 217 209 189 219 208 184 200 213 208 196 187 192 199 202 208 217 210 202 206 219 223 229 235 241 250 260 261 254 222 162 190 193 151 153 238 190 170 153 145 153 160 167 172 169 168 163 163 166 165 168
333 334 330 324 319 320 312 291 298 296 283 310 320 316 322 326 331 352 323 262 269 351 11 290 321 178 181 183 172 192 258 171 174 221 224 237 238 205 216 221 202 211 215 205 194 190 207 207 188 186 199 205 203 211 210 203 207 212 216 231 239 238 245 253 262 271 245 148 183 211 161 156 239 195 158 151 145 159 171 169 174 176 177 175 171 172 170 166
332 333 330 324 319 318 312 286 276 281 293 305 305 306 319 323 350 54 239 272 318 12 97 302 321 314 234 197 175 199 251 248 230 193 192 226 239 224 227 231 215 213 224 232 210 176 204 221 197 186 197 205 199 205 211 210 205 201 216 232 242 241 242 246 252 270 248 181 193 204 167 156 248 156 156 165 158 170 181 177 180 176 172 178 175 175 172 164
330 328 326 325 318 316 319 286 270 287 300 303 303 310 331 353 39 53 261 261 335 355 17 314 320 333 330 280 182 194 223 240 259 184 171 209 235 232 243 243 232 226 226 234 233 198 200 219 214 194 193 199 195 198 212 217 197 188 216 237 245 242 244 249 246 137 205 246 215 192 170 152 220 220 173 182 183 175 176 179 179 171 168 174 174 176 175 165
329 327 326 322 309 300 308 285 278 301 302 302 315 319 356 66 91 258 262 191 341 313 331 328 320 331 332 320 207 197 213 233 247 198 177 192 216 219 225 229 227 238 233 222 228 221 203 204 217 202 184 189 197 195 207 218 203 191 208 221 234 245 276 277 274 93 164 261 253 200 179 159 189 243 191 184 186 173 172 177 176 173 172 175 175 173 171 162
331 331 328 319 301 278 271 269 291 310 302 298 308 310 29 70 213 235 259 20 350 300 333 315 313 322 318 316 293 213 206 225 238 202 175 181 206 207 208 210 184 190 221 202 205 225 214 200 207 200 178 185 200 191 195 214 211 207 209 194 194 204 220 234 244 218 184 241 246 196 179 177 191 230 208 176 173 173 178 178 170 169 171 174 174 168 164 155
333 332 328 322 302 263 258 268 289 302 303 298 289 281 5 300 252 211 248 319 259 266 320 291 295 304 298 302 292 224 199 212 233 204 172 182 206 207 215 226 210 195 207 190 190 209 217 204 199 195 178 185 202 188 184 207 201 207 212 177 164 166 187 219 220 185 190 246 248 188 170 205 196 230 220 170 168 177 181 177 168 167 170 171 169 159 152 150
334 334 331 328 313 276 268 268 272 281 295 297 284 271 265 266 253 223 238 254 255 265 284 290 296 300 284 259 263 236 192 208 226 192 167 185 199 199 213 223 226 229 201 182 195 188 197 202 192 197 176 177 201 198 178 189 177 202 215 176 189 190 171 201 168 138 212 242 252 173 165 186 166 230 223 169 166 171 167 167 162 163 164 159 151 143 143 149
336 338 328 319 309 294 280 263 247 254 273 284 288 271 262 280 290 288 273 255 286 297 294 302 300 294 271 238 259 248 194 208 225 191 174 191 192 193 204 212 223 231 207 183 199 186 203 208 182 198 182 167 195 210 175 176 170 200 214 192 222 227 149 160 157 152 169 196 242 191 196 195 171 268 287 146 157 158 149 149 147 151 150 143 142 143 148 155
337 337 324 304 294 293 276 251 200 190 241 281 303 271 255 278 262 295 331 283 292 314 309 318 326 325 305 245 267 250 209 205 217 199 181 192 198 198 202 209 219 226 221 198 178 172 205 207 169 187 196 176 193 209 178 178 177 195 214 207 227 246 136 124 150 128 93 99 267 237 282 344 96 311 338 137 153 149 142 146 146 149 145 141 146 149 156 163
335 332 319 296 285 268 248 234 171 161 243 269 267 273 275 284 247 244 277 274 319 19 313 323 9 25 345 276 268 250 222 209 206 195 169 189 205 194 199 218 223 228 233 222 203 159 179 190 175 184 199 191 189 193 187 189 170 173 205 205 225 263 238 130 133 170 102 146 276 255 235 259 133 276 323 140 148 141 138 145 146 147 144 144 152 156 162 165
323 312 303 295 279 226 214 200 158 156 255 248 257 270 260 249 244 251 265 266 9 42 297 312 338 26 4 293 302 291 253 216 191 184 164 182 206 187 196 218 223 227 236 231 233 204 174 164 180 179 180 189 173 129 292 262 228 193 194 180 170 225 241 144 133 166 154 166 302 280 243 227 157 200 149 132 149 147 140 144 145 147 147 148 154 157 157 150
319 297 302 331 26 175 182 176 168 185 248 250 270 270 253 256 261 278 296 301 114 256 286 334 339 345 332 305 325 319 286 215 184 188 168 171 201 194 196 213 222 225 235 237 242 224 176 132 153 165 148 147 132 113 180 248 263 251 211 193 204 205 184 147 147 164 155 162 240 271 247 244 216 192 149 140 154 148 142 149 150 150 152 154 156 157 153 139
326 300 303 71 83 155 159 173 201 229 247 248 262 267 276 285 282 293 311 335 21 247 283 337 343 330 314 309 310 301 294 233 200 220 194 174 182 190 198 212 224 225 229 238 249 239 161 117 137 164 135 135 176 193 193 202 219 236 210 192 207 211 160 156 194 189 148 149 181 200 239 260 273 252 160 155 154 149 150 155 155 152 154 159 162 157 148 135
314 299 258 132 156 168 155 193 230 235 253 247 252 268 278 281 286 300 317 329 311 236 241 294 290 279 296 309 298 265 297 302 231 229 213 181 182 186 206 216 222 225 218 229 250 249 160 112 139 172 152 156 192 195 195 211 216 208 201 189 190 179 149 143 246 246 163 142 167 168 223 264 275 313 254 168 151 150 153 153 154 155 155 162 166 154 142 136
288 302 296 198 194 195 191 244 249 233 239 256 272 285 290 286 290 308 322 325 310 248 228 255 263 261 255 257 275 287 306 306 245 236 219 182 194 198 206 214 218 222 214 219 250 244 132 104 132 166 170 175 191 183 196 222 235 224 215 213 179 168 148 133 172 220 200 187 176 152 198 260 273 318 295 177 148 146 149 150 152 157 160 164 159 141 132 133
301 307 299 239 205 213 246 267 270 254 243 281 291 292 294 297 305 315 319 315 311 297 249 244 235 235 233 245 275 311 316 306 263 255 242 178 198 203 196 209 214 215 216 227 244 239 83 96 143 159 175 187 197 199 205 222 237 231 216 210 183 179 166 147 171 200 210 208 183 149 183 255 297 335 347 124 122 118 136 148 148 149 159 156 143 130 128 132
309 293 288 227 206 224 270 275 296 307 300 304 304 298 296 295 280 281 296 309 296 276 266 263 237 223 243 268 278 296 302 298 291 278 267 176 194 204 190 198 208 211 205 194 209 206 125 144 155 156 170 174 187 202 206 215 224 227 208 201 206 189 174 195 257 273 270 234 163 142 184 247 291 347 40 69 77 74 104 142 142 141 151 144 130 129 132 132
308 275 284 192 212 240 273 284 302 305 305 308 304 301 305 302 243 236 256 288 271 235 250 271 275 262 266 280 277 277 279 255 250 294 287 201 192 198 181 189 203 210 208 205 216 199 155 150 142 145 165 171 185 202 190 193 204 269 274 205 210 202 181 196 224 188 259 251 160 135 163 239 329 22 56 70 77 75 89 126 135 141 149 141 133 136 135 133
324 301 332 349 247 253 273 280 293 292 301 311 305 307 322 333 320 231 226 268 289 291 280 266 274 278 283 312 311 303 295 262 235 289 285 235 184 172 175 186 201 208 210 221 239 179 126 148 151 138 158 175 183 177 148 155 174 210 279 246 220 214 187 181 188 186 209 233 209 174 146 120 50 34 70 86 91 87 93 116 129 136 138 132 131 132 127 128
343 334 341 342 304 313 327 317 326 314 299 303 305 311 320 327 338 330 227 302 348 332 305 258 272 330 346 334 324 313 313 306 292 297 289 250 199 183 179 186 202 214 207 211 253 107 107 154 183 162 198 208 185 158 170 186 194 196 242 266 238 218 195 173 194 206 170 139 247 206 131 123 109 76 94 101 105 105 106 115 123 125 122 120 121 121 121 126
8 336 349 9 330 317 326 316 313 307 299 298 290 295 310 324 341 341 320 345 350 341 328 283 332 359 346 329 329 323 321 326 328 328 335 330 284 228 174 178 191 205 176 180 237 124 107 163 195 184 241 234 195 186 180 184 206 210 218 244 245 227 210 182 186 208 149 138 194 175 131 136 147 145 135 118 114 112 107 106 106 107 109 113 118 121 125 130
7 309 332 18 336 300 300 298 300 302 303 309 306 289 311 331 342 338 324 332 330 337 352 323 337 348 341 338 357 346 332 342 332 330 353 335 308 294 133 168 187 68 37 53 268 80 103 176 200 180 243 261 221 209 191 177 195 219 220 227 232 228 223 203 189 209 150 142 160 151 141 155 161 147 140 124 113 108 103 99 98 102 110 116 123 128 129 130
358 306 323 337 305 294 291 297 306 305 306 319 323 313 325 337 344 343 339 283 298 321 359 333 331 335 337 346 359 323 292 299 285 279 317 329 322 349 52 122 209 11 15 237 292 44 91 154 257 143 231 279 265 235 200 174 184 206 225 228 224 234 248 231 204 197 167 163 164 140 130 149 179 135 129 123 120 116 114 116 117 120 125 127 130 135 133 130
329 301 312 311 301 306 305 313 318 307 308 333 337 336 341 340 339 338 326 238 220 249 264 326 335 332 331 336 328 281 263 256 250 257 278 303 305 309 317 307 323 45 228 230 332 86 98 26 348 62 69 291 274 278 326 178 178 191 221 236 231 233 244 230 198 175 169 171 153 126 120 140 146 121 119 126 130 128 130 134 136 139 142 142 144 145 139 134
331 306 312 308 288 296 311 322 321 313 324 342 337 337 335 328 329 333 325 285 221 232 236 266 325 320 306 305 287 257 247 247 243 252 270 275 271 281 289 269 233 181 182 178 66 98 109 83 20 64 69 287 268 87 30 31 158 185 229 251 239 225 217 225 204 165 163 145 132 144 160 163 149 132 126 135 138 136 141 142 141 144 145 147 149 146 142 141